CW1795 Weather Reports


Display with metric or nautical units.
time (UTC)temp
F
wind
direction
speed
MPH
gust
MPH
rain 1hr
in
rain 24hr
in
rain mn
in
humidity
%
barometer
mb
20180523111505 54 230 4.0 8.0 0.06 0.40 0.33 93 1013.3
20180523111005 54 224 6.0 10.0 0.07 0.40 0.33 93 1013.3
20180523110504 54 230 5.0 8.0 0.07 0.40 0.33 93 1013.3
20180523110005 54 241 5.0 8.0 0.07 0.39 0.32 93 1013.1
20180523104505 54 216 6.0 9.0 0.10 0.39 0.32 94 1013.2
20180523104005 54 210 5.0 8.0 0.10 0.39 0.32 94 1013.1
20180523103504 54 215 7.0 10.0 0.11 0.38 0.31 94 1013.1
20180523103005 54 225 6.0 8.0 0.10 0.37 0.30 94 1013.1
20180523101505 53 232 5.0 7.0 0.11 0.34 0.27 93 1013.2
20180523101005 53 238 3.0 5.0 0.11 0.33 0.26 93 1013.4
20180523100505 53 258 2.0 3.0 0.12 0.33 0.26 93 1013.5
20180523100005 53 266 2.0 3.0 0.12 0.32 0.25 93 1013.6
20180523094505 54 51 1.0 2.0 0.12 0.29 0.22 92 1013.8
20180523094005 54 51 1.0 2.0 0.14 0.29 0.22 92 1013.8
20180523093505 54 51 1.0 1.0 0.12 0.27 0.20 92 1013.9
20180523093006 54 51 1.0 2.0 0.13 0.27 0.20 92 1013.9
20180523091005 54 51 0.0 1.0 0.10 0.22 0.15 91 1014.2
20180523090504 54 51 0.0 1.0 0.10 0.21 0.14 92 1014.2
20180523090005 54 51 0.0 3.0 0.09 0.20 0.13 92 1014.3
20180523084506 54 51 2.0 3.0 0.07 0.17 0.10 92 1014.5
20180523084005 54 51 2.0 3.0 0.05 0.15 0.08 92 1014.6
20180523083505 54 42 2.0 3.0 0.06 0.15 0.08 92 1014.6
20180523083006 54 42 2.0 3.0 0.05 0.14 0.07 91 1014.6
20180523081505 54 292 1.0 2.0 0.05 0.12 0.05 90 1014.6
20180523081006 54 292 0.0 1.0 0.05 0.12 0.05 90 1014.6
20180523080505 54 292 1.0 2.0 0.04 0.11 0.04 90 1014.5
20180523080006 54 292 1.0 3.0 0.04 0.11 0.04 90 1014.4
20180523074505 54 284 2.0 3.0 0.03 0.10 0.03 90 1014.5
20180523074005 54 286 1.0 3.0 0.03 0.10 0.03 89 1014.7
20180523073506 54 287 3.0 6.0 0.02 0.09 0.02 89 1014.7
20180523073005 55 276 3.0 8.0 0.02 0.09 0.02 89 1014.8
20180523071505 55 294 6.0 9.0 0.00 0.07 0.00 86 1015.0
20180523071006 55 308 3.0 8.0 0.00 0.07 0.00 86 1014.9
20180523070505 55 286 3.0 9.0 0.00 0.07 0.00 86 1015.0
20180523070005 55 309 3.0 7.0 0.00 0.07 0.00 86 1015.0
20180523064505 55 334 2.0 3.0 0.00 0.07 0.00 87 1015.1
20180523064006 55 334 0.0 1.0 0.00 0.07 0.00 86 1015.0
20180523063505 55 334 0.0 1.0 0.00 0.07 0.00 86 1015.1
20180523063006 55 334 0.0 8.0 0.00 0.07 0.00 87 1015.2
20180523061505 55 314 6.0 10.0 0.00 0.07 0.00 85 1015.5
20180523061005 55 317 2.0 7.0 0.00 0.07 0.00 85 1015.6
20180523060505 55 353 7.0 12.0 0.01 0.07 0.00 85 1015.7
20180523060005 55 346 7.0 12.0 0.01 0.07 0.00 84 1015.7
20180523054505 55 325 9.0 14.0 0.02 0.07 0.07 82 1016.0
20180523054005 55 354 10.0 12.0 0.02 0.07 0.07 84 1015.9
20180523053506 55 354 10.0 13.0 0.03 0.07 0.07 85 1015.9
20180523053006 55 297 5.0 12.0 0.03 0.07 0.07 86 1016.0
20180523051505 55 309 5.0 9.0 0.03 0.07 0.07 86 1016.0
20180523051005 55 286 6.0 12.0 0.04 0.07 0.07 86 1016.0
20180523050505 55 273 7.0 15.0 0.04 0.06 0.06 86 1015.9
20180523050006 55 262 9.0 15.0 0.04 0.06 0.06 86 1016.0
20180523044506 55 267 7.0 13.0 0.04 0.05 0.05 86 1015.7
20180523044005 55 255 10.0 16.0 0.04 0.05 0.05 85 1015.6
20180523043505 56 257 8.0 15.0 0.03 0.04 0.04 84 1015.4
20180523043006 56 237 7.0 14.0 0.03 0.04 0.04 84 1015.4
20180523041505 56 225 9.0 15.0 0.03 0.04 0.04 83 1015.4
20180523041005 56 222 11.0 15.0 0.03 0.03 0.03 83 1015.5
20180523040505 56 203 9.0 14.0 0.02 0.02 0.02 84 1015.7
20180523040006 56 204 7.0 15.0 0.02 0.02 0.02 85 1015.7
20180523034506 56 210 13.0 18.0 0.01 0.01 0.01 83 1015.3
20180523034006 56 219 13.0 17.0 0.01 0.01 0.01 81 1015.1
20180523033505 57 219 12.0 16.0 0.01 0.01 0.01 81 1015.0
20180523033006 57 225 13.0 24.0 0.01 0.01 0.01 79 1014.8
20180523031506 57 227 17.0 24.0 0.01 0.01 0.01 78 1014.5
20180523031005 57 225 14.0 21.0 0.00 0.00 0.00 78 1014.4
20180523030505 58 220 17.0 22.0 0.00 0.00 0.00 77 1014.7
20180523030005 57 207 14.0 25.0 0.00 0.00 0.00 78 1014.9
20180523024505 59 174 21.0 38.0 0.00 0.00 0.00 69 1014.9
20180523024009 61 191 28.0 37.0 0.00 0.00 0.00 62 1014.3
20180523023506 64 192 16.0 24.0 0.00 0.00 0.00 55 1013.9
20180523023006 67 194 18.0 26.0 0.00 0.00 0.00 51 1014.3
20180523021505 67 298 4.0 9.0 0.00 0.00 0.00 55 1013.4
20180523021005 67 290 5.0 10.0 0.00 0.00 0.00 55 1013.3
20180523020505 67 272 6.0 10.0 0.00 0.00 0.00 55 1013.2
20180523020005 68 285 7.0 13.0 0.00 0.00 0.00 54 1013.2
20180523014505 68 299 5.0 12.0 0.00 0.00 0.00 54 1012.7
20180523014005 68 312 6.0 13.0 0.00 0.00 0.00 54 1012.7
20180523013505 68 309 7.0 12.0 0.00 0.00 0.00 54 1012.7
20180523013006 68 322 8.0 13.0 0.00 0.00 0.00 54 1012.7
20180523011505 69 302 6.0 13.0 0.00 0.00 0.00 54 1012.8
20180523011005 69 298 6.0 12.0 0.00 0.00 0.00 54 1012.8
20180523010505 70 308 7.0 14.0 0.00 0.00 0.00 53 1012.6
20180523010006 70 290 9.0 14.0 0.00 0.00 0.00 52 1012.6
20180523004505 70 278 3.0 6.0 0.00 0.00 0.00 50 1012.6
20180523004006 70 292 3.0 7.0 0.00 0.00 0.00 49 1012.6
20180523003505 71 301 3.0 6.0 0.00 0.00 0.00 49 1012.6
20180523003006 71 297 4.0 8.0 0.00 0.00 0.00 50 1012.6
20180523001506 72 304 5.0 9.0 0.00 0.00 0.00 47 1012.4
20180523001006 72 327 5.0 9.0 0.00 0.00 0.00 47 1012.4
20180523000505 72 325 5.0 10.0 0.00 0.00 0.00 47 1012.4
20180523000005 72 329 7.0 17.0 0.00 0.00 0.00 46 1012.4
20180522234506 73 333 9.0 18.0 0.00 0.00 0.00 45 1012.2
20180522234005 73 327 10.0 15.0 0.00 0.00 0.00 45 1012.0
20180522233506 73 325 9.0 14.0 0.00 0.00 0.00 45 1012.1
20180522233006 73 314 9.0 16.0 0.00 0.00 0.00 45 1012.3
20180522231506 76 315 7.0 18.0 0.00 0.00 0.00 44 1012.7
20180522231005 75 343 13.0 21.0 0.00 0.00 0.00 44 1012.6
20180522230505 76 322 11.0 20.0 0.00 0.00 0.00 45 1012.9
20180522230006 76 328 13.0 22.0 0.00 0.00 0.00 45 1012.8
20180522224506 77 324 12.0 20.0 0.00 0.00 0.00 43 1013.2
20180522224005 76 339 10.0 16.0 0.00 0.00 0.00 43 1013.2
20180522223505 75 333 7.0 16.0 0.00 0.00 0.00 44 1013.1
20180522223006 75 327 12.0 18.0 0.00 0.00 0.00 42 1013.0
20180522221505 76 337 13.0 20.0 0.00 0.00 0.00 43 1013.0
20180522221005 76 329 13.0 20.0 0.00 0.00 0.00 42 1012.9
20180522220505 76 316 12.0 22.0 0.00 0.00 0.00 43 1012.9
20180522220006 77 316 15.0 22.0 0.00 0.00 0.00 43 1013.0
20180522214505 78 331 10.0 20.0 0.00 0.00 0.00 40 1012.9
20180522214005 78 325 10.0 17.0 0.00 0.00 0.00 38 1013.0
20180522213505 78 299 11.0 16.0 0.00 0.00 0.00 38 1013.1
20180522213006 78 279 9.0 16.0 0.00 0.00 0.00 38 1013.1
20180522211505 78 291 6.0 10.0 0.00 0.00 0.00 39 1013.3
20180522211006 76 244 6.0 8.0 0.00 0.00 0.00 37 1013.4
20180522210505 76 209 3.0 8.0 0.00 0.00 0.00 37 1013.2
20180522210006 75 298 5.0 10.0 0.00 0.00 0.00 39 1013.4
20180522204506 74 210 0.0 5.0 0.00 0.00 0.00 37 1013.4
20180522204006 75 273 3.0 6.0 0.00 0.00 0.00 38 1013.4
20180522203506 75 304 1.0 6.0 0.00 0.00 0.00 37 1013.4
20180522203006 75 308 2.0 8.0 0.00 0.00 0.00 37 1013.5
20180522201505 75 302 5.0 8.0 0.00 0.00 0.00 37 1013.8
20180522201005 75 61 2.0 5.0 0.00 0.00 0.00 36 1013.8
20180522200504 75 309 4.0 8.0 0.00 0.00 0.00 38 1013.9
20180522200006 74 314 5.0 10.0 0.00 0.00 0.00 38 1013.8
20180522194505 75 328 6.0 10.0 0.00 0.00 0.00 38 1014.0
20180522194006 75 352 5.0 8.0 0.00 0.00 0.00 37 1014.0
20180522193505 74 100 1.0 3.0 0.00 0.00 0.00 37 1014.2
20180522193006 75 30 4.0 8.0 0.00 0.00 0.00 35 1014.3
20180522191506 76 48 5.0 12.0 0.00 0.00 0.00 38 1014.6
20180522191005 74 31 5.0 9.0 0.00 0.00 0.00 39 1014.6
20180522190505 73 110 2.0 6.0 0.00 0.00 0.00 38 1014.6
20180522190006 73 147 3.0 9.0 0.00 0.00 0.00 38 1014.6
20180522184506 73 67 5.0 9.0 0.00 0.00 0.00 39 1014.6
20180522184006 72 160 3.0 7.0 0.00 0.00 0.00 39 1014.7
20180522183506 74 89 7.0 10.0 0.00 0.00 0.00 39 1014.7
20180522183006 73 66 4.0 7.0 0.00 0.00 0.00 39 1014.8
20180522181506 73 265 3.0 8.0 0.00 0.00 0.00 44 1015.2
20180522181006 71 289 2.0 8.0 0.00 0.00 0.00 45 1015.3
20180522180505 71 299 4.0 8.0 0.00 0.00 0.00 45 1015.4
20180522180006 71 271 3.0 8.0 0.00 0.00 0.00 44 1015.5
20180522174506 72 353 5.0 8.0 0.00 0.00 0.00 43 1015.5
20180522174006 72 325 5.0 10.0 0.00 0.00 0.00 43 1015.6
20180522173505 71 6 3.0 9.0 0.00 0.00 0.00 44 1015.6
20180522173006 71 2 3.0 9.0 0.00 0.00 0.00 45 1015.6
20180522171508 70 11 4.0 9.0 0.00 0.00 0.00 48 1015.8
20180522171009 69 355 2.0 10.0 0.00 0.00 0.00 49 1015.8
20180522170505 69 336 2.0 8.0 0.00 0.00 0.00 47 1015.8
20180522170009 70 295 3.0 5.0 0.00 0.00 0.00 50 1015.8
20180522163009 68 292 6.0 7.0 0.00 0.00 0.00 53 1016.2
20180522161508 67 294 5.0 8.0 0.00 0.00 0.00 55 1015.9